FENGYUN 1C DEB

Satellite information

Favourite Embed

Satellite Type and Status

DEBRISIN ORBIT

Key statistics

Satellite FENGYUN 1C DEB at a glance.

Uptime

9495

Days in orbit

Revolutions

≈ 14.5

Per day

Orbit

SSO

Sun Synchronous Orbit

Inclination

99.0

Latest

Satellite identification and parameters

Extended collection of information and parameters for FENGYUN 1C DEB.

Object identification

Identified? True

Debris? True

Object name: FENGYUN 1C DEB

International designator: 1999-025AFJ

Object number (NORAD): 30447

Object ID (CCSDS): 30447

Country: PEOPLES REPUBLIC OF CHINA (PRC)

Current information (Y/N): Y

RCS size: SMALL

Orbital parameters

Period: 99.168 minutes

Inclination: 98.9927 deg

SMA: 7096.977 km

Apoapsis: 763.844 km

Periapsis: 673.84 km

RAAN: 333.5899 deg

Eccentricy: 0.006341

Argument of periapsis: 335.3404 deg

Mean anomaly: 35.7112 deg

Mean motion: 14.52087183 rev/day

Mean motion (dot): 0.00006646 rev/day2

B* drag term: 0.0016114 1/REarth

Two-line elements (TLE)

Creation date: May 8, 2025, 3:01 a.m.

Reference frame: TEME

Reference center: EARTH

Epoch: May 7, 2025, 8:04 p.m. UTC

TLE line 0: 0 FENGYUN 1C DEB

TLE line 1: 1 30447U 99025AFJ 25127.83626764 .00006646 00000-0 16114-2 0 9999

TLE line 2: 2 30447 98.9927 333.5899 0063410 335.3404 35.7112 14.52087183949156

Live tracking on map

Real-time ground track for satellite FENGYUN 1C DEB.

In-orbit conjunctions

A list of the most updated potential collisions computed for object FENGYUN 1C DEB.

Target Orbit TCA Probability of collision Miss distance Type
CZ-2C R/B SSO 2025-04-07 23:09:15 0.0002243568 480.0 (m) ROCKET BODY
CZ-6A DEB LEO 2024-11-15 03:43:05 0.0001739356 624.0 (m) DEBRIS

Associated space launch

Chinese polar orbiting meteorological satellite

FENGYUN 1C DEB was lifted into orbit during the mission ‘Long March 4B | Feng Yun 1C’, on board a Long March 4B space rocket.

The launch took place on May 10, 1999, 1:33 a.m. from Launch Complex 7.

For more information about the launch, click the button.

Launch to space Long March 4B | Feng Yun 1C
Long March 4B | Feng Yun 1C

Agency: N/A

Status: Launch Successful

Launch date: May 10, 1999, 1:33 a.m. UTC

Rocket: Long March 4B

Launch pad: Launch Complex 7

Location: Taiyuan Satellite Launch Center, People's Republic of China

...

Latest news about this satellite

There are no fresh news available about this satellite. Check back as we update our databases every day.


Newsletter sign-up

Weekly statistics, charts and insights to help you stay on top of the space industry.